Location: Boiro
(42.6475°N, 8.8834°W)
Time: 07:19:31
(UTC+01:00)

SR - Pass Details

Date: 07 December 2021
Orbit: 583 x 872 km, 66.7° (Epoch: 16 January)

Event Time Altitude Azimuth Distance (km) Brightness Sun altitude
Rises 01:28:30 0° 247° (WSW) 2,950 - -70.0°
Reaches altitude 10° 01:31:20 10° 264° (W) 1,999 - -69.9°
Maximum altitude 01:34:43 21° 313° (NW) 1,391 - -69.9°
Drops below altitude 10° 01:37:59 10° 3° (N) 1,931 - -69.8°
Sets 01:40:41 0° 20° (NNE) 2,819 - -69.8°
